Location: Unspecified
(0.0000°N, 0.0000°E)
Time: 21:26:35
(UTC+00:00)

Vanguard 1 - Pass Details

Date: 24 June 2025
Orbit: 649 x 3822 km, 34.2° (Epoch: 12 July)

Event Time Altitude Azimuth Distance (km) Brightness Sun altitude
Exits shadow 04:52:34 25° 254° (WSW) 1,569 10.5 -16.0°
Maximum altitude 04:55:38 60° 327° (NNW) 1,056 10.1 -15.3°
Drops below altitude 10° 05:03:32 10° 46° (NE) 3,526 14.1 -13.5°
Sets 05:07:35 0° 49° (NE) 5,002 15.3 -12.6°
